Regional Weather Roundup
Issued by NWS

Home | Current Version | Previous Version | Text Only | Print | Product List | Glossary On
Versions: 1 2 3 4 5 6 7 8 9 10 11 12 13 14 15 16 17 18 19 20 21 22 23 24 25 26 27 28 29 30 31 32 33 34 35 36 37 38 39 40 41 42 43 44 45 46 47 48 49 50
000
ASUS43 KFSD 170710
RWRSD

WEATHER ROUNDUP FOR SOUTH DAKOTA
NATIONAL WEATHER SERVICE SIOUX FALLS SD
100 AM CST SAT FEB 17 2018

NOTE: "FAIR" INDICATES FEW OR NO CLOUDS BELOW 12,000 FEET WITH NO
SIGNIFICANT WEATHER AND/OR OBSTRUCTIONS TO VISIBILITY.


SDZ001>005-009-010-012>017-170800-
NORTHWEST AND NORTH CENTRAL SOUTH DAKOTA

CITY           SKY/WX    TMP DP  RH WIND       PRES   REMARKS
BUFFALO          N/A     19  15  84 W9        29.70F WCI   8
FAITH            N/A     23  20  88 W13       29.80F WCI  11
MOBRIDGE       CLEAR     17  13  84 CALM      29.80S
$$

SDZ012>016-024>037-041>051-057-063-072>074-170800-
SOUTHWEST AND SOUTH CENTRAL SOUTH DAKOTA

CITY           SKY/WX    TMP DP  RH WIND       PRES   REMARKS
RAPID CTY ARPT PTCLDY    24  15  68 N10       29.82S WCI  14
PIERRE         CLOUDY    23  18  81 NW12      29.84F WCI  12
CUSTER         PTCLDY    19   8  62 CALM      29.75S
ELLSWORTH AFB  PTCLDY    27  15  61 N6        29.81S WCI  20
PHILIP         MOCLDY    24  17  74 NW3       29.85R
PINE RIDGE     CLOUDY    30  23  75 CALM      29.83S
SPEARFISH        N/A     25  12  58 SW9       29.79S WCI  15
WINNER         CLOUDY    32  25  75 SE3       29.83F
$$

SDZ004>011-016>023-039-040-170800-
NORTHEAST SOUTH DAKOTA

CITY           SKY/WX    TMP DP  RH WIND       PRES   REMARKS
ABERDEEN       CLOUDY    21  17  84 S8        29.85F WCI  11
WATERTOWN      CLOUDY    24  20  84 SW10      29.83F WCI  14
BROOKINGS      CLOUDY    23  18  81 S9        29.87F WCI  13
SISSETON         N/A     26  18  71 SW15G24   29.83S WCI  14
$$

SDZ017-020-022-023-036>040-048>070-170800-
SOUTHEAST SOUTH DAKOTA

CITY           SKY/WX    TMP DP  RH WIND       PRES   REMARKS
SIOUX FALLS    CLOUDY    27  18  69 S14G21    29.92S WCI  16
HURON          CLOUDY    25  21  85 SE3       29.86F
CHAMBERLAIN    CLOUDY    33  26  76 CALM      29.85S
MITCHELL       CLOUDY    30  23  75 S7        29.90F WCI  23
YANKTON        CLOUDY    29  18  63 S10       29.91S WCI  20
$$

ABBREVIATIONS USED IN REMARKS
   TC - TEMPERATURE IN CELSIUS
  WCI - WIND CHILL INDEX
   HX - HEAT INDEX
  VSB - VISIBILITY





USA.gov is the U.S. government's official web portal to all federal, state and local government web resources and services.